User: anonymous   Login
Location: Asheville, NC
(35.6000°N, 82.5500°W)
Time: 20:13:48
(UTC-04:00)
Language:

nSIGHT-1 - Orbit

View from above orbital plane
View from above orbital plane
View from above satellite
View from above satellite

Ground track
Ground track

The orbit data is extracted from the following two-line orbital elements,

1 42726U 98067MF  18114.92669058  .00007754  00000-0  97563-4 0  9998
2 42726  51.6383 275.6185 0005336  37.2377 322.8986 15.60720305 52081
Epoch (UTC): 24 April 2018 22:14:26
Eccentricity: 0.0005336
inclination: 51.6383°
perigee height: 382 km
apogee height: 389 km
right ascension of ascending node: 275.6185°
argument of perigee: 37.2377°
revolutions per day: 15.60720305
mean anomaly at epoch: 322.8986°
orbit number at epoch: 5208

The dashed part of the orbit path shows where the satellite is in the earth's shadow,  

DLR